Location: Gleizolles
(44.4833°N, 6.7667°E)
Time: 12:21:16
(UTC+00:00)

A-11 Canister half - Pass Details

Date: 20 June 2024
Orbit: 1515 x 1684 km, 47.2° (Epoch: 24 July)

Event Time Altitude Azimuth Distance (km) Brightness Sun altitude
Rises 00:21:34 0° 294° (WNW) 4,843 11.8 -21.2°
Reaches altitude 10° 00:24:52 10° 289° (WNW) 3,831 11.1 -21.1°
Maximum altitude 00:33:56 47° 220° (SW) 1,988 9.2 -20.7°
Enters shadow 00:40:37 18° 156° (SSE) 3,100 10.2 -20.4°
